Wetterdaten: Dienstag, 03.11.2015
Datum Zeit Temperatur Luftfeuchte Luftdruck Regen Wind Richtung Richtung Sonnenschein ET UV Solar Taupunkt Windchill Windben
03.11.2015 00:00 -0,1 C 80 % 1026,5 hPa 0,0 l/m 0,0 km/h (0 Bft) O-NO 69 0 min 0,000 mm 0,0 UV-I 0 W/m -3,1 C -0,1 C 0,0 km/h (0 Bft)
03.11.2015 00:05 -0,1 C 80 % 1026,5 hPa 0,0 l/m 0,0 km/h (0 Bft) O-NO 69 0 min 0,000 mm 0,0 UV-I 0 W/m -3,1 C -0,1 C 0,0 km/h (0 Bft)
03.11.2015 00:10 -0,2 C 80 % 1026,4 hPa 0,0 l/m 0,0 km/h (0 Bft) O-NO 69 0 min 0,000 mm 0,0 UV-I 0 W/m -3,2 C -0,2 C 0,0 km/h (0 Bft)
03.11.2015 00:15 -0,3 C 80 % 1026,5 hPa 0,0 l/m 0,0 km/h (0 Bft) O-NO 69 0 min 0,000 mm 0,0 UV-I 0 W/m -3,3 C -0,3 C 0,0 km/h (0 Bft)
03.11.2015 00:20 -0,4 C 80 % 1026,4 hPa 0,0 l/m 0,0 km/h (0 Bft) O-NO 69 0 min 0,000 mm 0,0 UV-I 0 W/m -3,4 C -0,4 C 0,0 km/h (0 Bft)
03.11.2015 00:25 -0,5 C 80 % 1026,5 hPa 0,0 l/m 0,0 km/h (0 Bft) O-NO 69 0 min 0,000 mm 0,0 UV-I 0 W/m -3,5 C -0,5 C 0,0 km/h (0 Bft)
03.11.2015 00:30 -0,6 C 80 % 1026,5 hPa 0,0 l/m 0,0 km/h (0 Bft) O-NO 69 0 min 0,000 mm 0,0 UV-I 0 W/m -3,6 C -0,6 C 0,0 km/h (0 Bft)
03.11.2015 00:35 -0,4 C 80 % 1026,5 hPa 0,0 l/m 0,0 km/h (0 Bft) O-NO 69 0 min 0,000 mm 0,0 UV-I 0 W/m -3,4 C -0,4 C 0,0 km/h (0 Bft)
03.11.2015 00:40 -0,4 C 80 % 1026,5 hPa 0,0 l/m 0,0 km/h (0 Bft) O-NO 69 0 min 0,000 mm 0,0 UV-I 0 W/m -3,4 C -0,4 C 0,0 km/h (0 Bft)
03.11.2015 00:45 -0,4 C 80 % 1026,5 hPa 0,0 l/m 0,0 km/h (0 Bft) O-NO 69 0 min 0,000 mm 0,0 UV-I 0 W/m -3,4 C -0,4 C 0,0 km/h (0 Bft)
03.11.2015 00:50 -0,4 C 80 % 1026,4 hPa 0,0 l/m 0,0 km/h (0 Bft) O-NO 69 0 min 0,000 mm 0,0 UV-I 0 W/m -3,4 C -0,4 C 0,0 km/h (0 Bft)
03.11.2015 00:55 -0,5 C 80 % 1026,3 hPa 0,0 l/m 0,0 km/h (0 Bft) O-NO 69 0 min 0,000 mm 0,0 UV-I 0 W/m -3,5 C -0,5 C 0,0 km/h (0 Bft)
03.11.2015 01:00 -0,5 C 80 % 1026,3 hPa 0,0 l/m 0,0 km/h (0 Bft) O-NO 69 0 min 0,000 mm 0,0 UV-I 0 W/m -3,5 C -0,5 C 0,0 km/h (0 Bft)
03.11.2015 01:05 -0,5 C 80 % 1026,3 hPa 0,0 l/m 0,0 km/h (0 Bft) O-NO 69 0 min 0,000 mm 0,0 UV-I 0 W/m -3,5 C -0,5 C 0,0 km/h (0 Bft)
03.11.2015 01:10 -0,5 C 80 % 1026,3 hPa 0,0 l/m 0,0 km/h (0 Bft) O-NO 69 0 min 0,000 mm 0,0 UV-I 0 W/m -3,5 C -0,5 C 0,0 km/h (0 Bft)
03.11.2015 01:15 -0,4 C 80 % 1026,3 hPa 0,0 l/m 0,0 km/h (0 Bft) O-NO 69 0 min 0,000 mm 0,0 UV-I 0 W/m -3,4 C -0,4 C 0,0 km/h (0 Bft)
03.11.2015 01:20 -0,4 C 79 % 1026,1 hPa 0,0 l/m 0,0 km/h (0 Bft) O-NO 69 0 min 0,000 mm 0,0 UV-I 0 W/m -3,6 C -0,4 C 0,0 km/h (0 Bft)
03.11.2015 01:25 -0,6 C 79 % 1026,1 hPa 0,0 l/m 0,0 km/h (0 Bft) O-NO 69 0 min 0,000 mm 0,0 UV-I 0 W/m -3,8 C -0,6 C 0,0 km/h (0 Bft)
03.11.2015 01:30 -0,6 C 79 % 1026,1 hPa 0,0 l/m 0,0 km/h (0 Bft) O-NO 69 0 min 0,000 mm 0,0 UV-I 0 W/m -3,8 C -0,6 C 0,0 km/h (0 Bft)
03.11.2015 01:35 -0,6 C 79 % 1026,0 hPa 0,0 l/m 0,0 km/h (0 Bft) O-NO 69 0 min 0,000 mm 0,0 UV-I 0 W/m -3,8 C -0,6 C 0,0 km/h (0 Bft)
03.11.2015 01:40 -0,6 C 79 % 1026,0 hPa 0,0 l/m 0,0 km/h (0 Bft) O-NO 69 0 min 0,000 mm 0,0 UV-I 0 W/m -3,8 C -0,6 C 0,0 km/h (0 Bft)
03.11.2015 01:45 -0,6 C 79 % 1026,0 hPa 0,0 l/m 0,0 km/h (0 Bft) O-NO 69 0 min 0,000 mm 0,0 UV-I 0 W/m -3,8 C -0,6 C 0,0 km/h (0 Bft)
03.11.2015 01:50 -0,6 C 79 % 1025,9 hPa 0,0 l/m 0,0 km/h (0 Bft) O-NO 69 0 min 0,000 mm 0,0 UV-I 0 W/m -3,8 C -0,6 C 0,0 km/h (0 Bft)
03.11.2015 01:55 -0,6 C 79 % 1025,9 hPa 0,0 l/m 0,0 km/h (0 Bft) O-NO 69 0 min 0,000 mm 0,0 UV-I 0 W/m -3,8 C -0,6 C 0,0 km/h (0 Bft)
03.11.2015 02:00 -0,5 C 79 % 1025,9 hPa 0,0 l/m 0,0 km/h (0 Bft) O-NO 69 0 min 0,000 mm 0,0 UV-I 0 W/m -3,7 C -0,5 C 0,0 km/h (0 Bft)
03.11.2015 02:05 -0,5 C 79 % 1025,9 hPa 0,0 l/m 0,0 km/h (0 Bft) O-NO 69 0 min 0,000 mm 0,0 UV-I 0 W/m -3,7 C -0,5 C 0,0 km/h (0 Bft)
03.11.2015 02:10 -0,5 C 79 % 1025,9 hPa 0,0 l/m 0,0 km/h (0 Bft) O-NO 69 0 min 0,000 mm 0,0 UV-I 0 W/m -3,7 C -0,5 C 0,0 km/h (0 Bft)
03.11.2015 02:15 -0,5 C 79 % 1025,9 hPa 0,0 l/m 0,0 km/h (0 Bft) O-NO 69 0 min 0,000 mm 0,0 UV-I 0 W/m -3,7 C -0,5 C 0,0 km/h (0 Bft)
03.11.2015 02:20 -0,5 C 79 % 1025,9 hPa 0,0 l/m 0,0 km/h (0 Bft) O-NO 69 0 min 0,000 mm 0,0 UV-I 0 W/m -3,7 C -0,5 C 0,0 km/h (0 Bft)
03.11.2015 02:25 -0,5 C 79 % 1026,0 hPa 0,0 l/m 0,0 km/h (0 Bft) O-NO 69 0 min 0,000 mm 0,0 UV-I 0 W/m -3,7 C -0,5 C 0,0 km/h (0 Bft)
03.11.2015 02:30 -0,6 C 79 % 1025,9 hPa 0,0 l/m 0,0 km/h (0 Bft) O-NO 69 0 min 0,000 mm 0,0 UV-I 0 W/m -3,8 C -0,6 C 0,0 km/h (0 Bft)
03.11.2015 02:35 -0,6 C 79 % 1025,8 hPa 0,0 l/m 0,0 km/h (0 Bft) O-NO 69 0 min 0,000 mm 0,0 UV-I 0 W/m -3,8 C -0,6 C 0,0 km/h (0 Bft)
03.11.2015 02:40 -0,6 C 79 % 1025,9 hPa 0,0 l/m 0,0 km/h (0 Bft) O-NO 69 0 min 0,000 mm 0,0 UV-I 0 W/m -3,8 C -0,6 C 0,0 km/h (0 Bft)
03.11.2015 02:45 -0,6 C 79 % 1025,8 hPa 0,0 l/m 0,0 km/h (0 Bft) O-NO 69 0 min 0,000 mm 0,0 UV-I 0 W/m -3,8 C -0,6 C 0,0 km/h (0 Bft)
03.11.2015 02:50 -0,5 C 79 % 1025,8 hPa 0,0 l/m 0,0 km/h (0 Bft) O-NO 69 0 min 0,000 mm 0,0 UV-I 0 W/m -3,7 C -0,5 C 0,0 km/h (0 Bft)
03.11.2015 02:55 -0,5 C 79 % 1025,8 hPa 0,0 l/m 0,0 km/h (0 Bft) O-NO 69 0 min 0,000 mm 0,0 UV-I 0 W/m -3,7 C -0,5 C 0,0 km/h (0 Bft)
03.11.2015 03:00 -0,5 C 79 % 1025,6 hPa 0,0 l/m 0,0 km/h (0 Bft) O-NO 69 0 min 0,000 mm 0,0 UV-I 0 W/m -3,7 C -0,5 C 0,0 km/h (0 Bft)
03.11.2015 03:05 -0,6 C 79 % 1025,5 hPa 0,0 l/m 0,0 km/h (0 Bft) O-NO 69 0 min 0,000 mm 0,0 UV-I 0 W/m -3,8 C -0,6 C 0,0 km/h (0 Bft)
03.11.2015 03:10 -0,6 C 79 % 1025,5 hPa 0,0 l/m 0,0 km/h (0 Bft) O-NO 69 0 min 0,000 mm 0,0 UV-I 0 W/m -3,8 C -0,6 C 0,0 km/h (0 Bft)
03.11.2015 03:15 -0,6 C 79 % 1025,5 hPa 0,0 l/m 0,0 km/h (0 Bft) O-NO 69 0 min 0,000 mm 0,0 UV-I 0 W/m -3,8 C -0,6 C 0,0 km/h (0 Bft)
03.11.2015 03:20 -0,6 C 79 % 1025,5 hPa 0,0 l/m 0,0 km/h (0 Bft) O-NO 69 0 min 0,000 mm 0,0 UV-I 0 W/m -3,8 C -0,6 C 0,0 km/h (0 Bft)
03.11.2015 03:25 -0,6 C 79 % 1025,4 hPa 0,0 l/m 0,0 km/h (0 Bft) O-NO 69 0 min 0,000 mm 0,0 UV-I 0 W/m -3,8 C -0,6 C 0,0 km/h (0 Bft)
03.11.2015 03:30 -0,6 C 79 % 1025,2 hPa 0,0 l/m 0,0 km/h (0 Bft) O-NO 69 0 min 0,000 mm 0,0 UV-I 0 W/m -3,8 C -0,6 C 0,0 km/h (0 Bft)
03.11.2015 03:35 -0,6 C 79 % 1025,1 hPa 0,0 l/m 0,7 km/h (0 Bft) O-NO 69 0 min 0,000 mm 0,0 UV-I 0 W/m -3,8 C -0,6 C 3,2 km/h (1 Bft)
03.11.2015 03:40 -0,5 C 79 % 1025,0 hPa 0,0 l/m 1,5 km/h (1 Bft) NO 51 0 min 0,000 mm 0,0 UV-I 0 W/m -3,7 C -0,5 C 4,8 km/h (1 Bft)
03.11.2015 03:45 -0,4 C 79 % 1024,9 hPa 0,0 l/m 2,1 km/h (1 Bft) O-NO 65 0 min 0,000 mm 0,0 UV-I 0 W/m -3,6 C -0,4 C 6,4 km/h (2 Bft)
03.11.2015 03:50 -0,4 C 79 % 1024,9 hPa 0,0 l/m 1,4 km/h (1 Bft) O-NO 72 0 min 0,000 mm 0,0 UV-I 0 W/m -3,6 C -0,4 C 6,4 km/h (2 Bft)
03.11.2015 03:55 -0,4 C 79 % 1024,8 hPa 0,0 l/m 1,4 km/h (1 Bft) O-NO 72 0 min 0,000 mm 0,0 UV-I 0 W/m -3,6 C -0,4 C 4,8 km/h (1 Bft)
03.11.2015 04:00 -0,4 C 79 % 1024,9 hPa 0,0 l/m 1,1 km/h (1 Bft) O-NO 72 0 min 0,000 mm 0,0 UV-I 0 W/m -3,6 C -0,4 C 4,8 km/h (1 Bft)
03.11.2015 04:05 -0,4 C 79 % 1024,8 hPa 0,0 l/m 0,0 km/h (0 Bft) O-NO 72 0 min 0,000 mm 0,0 UV-I 0 W/m -3,6 C -0,4 C 1,6 km/h (1 Bft)
03.11.2015 04:10 -0,5 C 79 % 1024,7 hPa 0,0 l/m 2,7 km/h (1 Bft) O-NO 72 0 min 0,000 mm 0,0 UV-I 0 W/m -3,7 C -0,5 C 4,8 km/h (1 Bft)
03.11.2015 04:15 -0,6 C 79 % 1024,6 hPa 0,0 l/m 0,3 km/h (0 Bft) O-NO 72 0 min 0,000 mm 0,0 UV-I 0 W/m -3,8 C -0,6 C 3,2 km/h (1 Bft)
03.11.2015 04:20 -0,5 C 79 % 1024,6 hPa 0,0 l/m 0,2 km/h (0 Bft) O-NO 72 0 min 0,000 mm 0,0 UV-I 0 W/m -3,7 C -0,5 C 1,6 km/h (1 Bft)
03.11.2015 04:25 -0,5 C 79 % 1024,6 hPa 0,0 l/m 1,5 km/h (1 Bft) O-NO 72 0 min 0,000 mm 0,0 UV-I 0 W/m -3,7 C -0,5 C 3,2 km/h (1 Bft)
03.11.2015 04:30 -0,5 C 79 % 1024,6 hPa 0,0 l/m 1,2 km/h (1 Bft) O 79 0 min 0,000 mm 0,0 UV-I 0 W/m -3,7 C -0,5 C 4,8 km/h (1 Bft)
03.11.2015 04:35 -0,5 C 79 % 1024,5 hPa 0,0 l/m 0,1 km/h (0 Bft) O 79 0 min 0,000 mm 0,0 UV-I 0 W/m -3,7 C -0,5 C 1,6 km/h (1 Bft)
03.11.2015 04:40 -0,5 C 79 % 1024,4 hPa 0,0 l/m 0,1 km/h (0 Bft) O 79 0 min 0,000 mm 0,0 UV-I 0 W/m -3,7 C -0,5 C 1,6 km/h (1 Bft)
03.11.2015 04:45 -0,5 C 79 % 1024,3 hPa 0,0 l/m 0,2 km/h (0 Bft) O 79 0 min 0,000 mm 0,0 UV-I 0 W/m -3,7 C -0,5 C 1,6 km/h (1 Bft)
03.11.2015 04:50 -0,6 C 79 % 1024,6 hPa 0,0 l/m 0,1 km/h (0 Bft) O 79 0 min 0,000 mm 0,0 UV-I 0 W/m -3,8 C -0,6 C 1,6 km/h (1 Bft)
03.11.2015 04:55 -0,6 C 79 % 1024,7 hPa 0,0 l/m 0,0 km/h (0 Bft) O 79 0 min 0,000 mm 0,0 UV-I 0 W/m -3,8 C -0,6 C 0,0 km/h (0 Bft)
03.11.2015 05:00 -0,5 C 79 % 1024,7 hPa 0,0 l/m 0,0 km/h (0 Bft) O 79 0 min 0,000 mm 0,0 UV-I 0 W/m -3,7 C -0,5 C 0,0 km/h (0 Bft)
03.11.2015 05:05 -0,4 C 79 % 1024,7 hPa 0,0 l/m 0,0 km/h (0 Bft) O 79 0 min 0,000 mm 0,0 UV-I 0 W/m -3,6 C -0,4 C 0,0 km/h (0 Bft)
03.11.2015 05:10 -0,4 C 80 % 1024,7 hPa 0,0 l/m 0,0 km/h (0 Bft) O 79 0 min 0,000 mm 0,0 UV-I 0 W/m -3,4 C -0,4 C 0,0 km/h (0 Bft)
03.11.2015 05:15 -0,4 C 80 % 1024,7 hPa 0,0 l/m 0,0 km/h (0 Bft) O 79 0 min 0,000 mm 0,0 UV-I 0 W/m -3,4 C -0,4 C 0,0 km/h (0 Bft)
03.11.2015 05:20 -0,4 C 80 % 1024,6 hPa 0,0 l/m 0,0 km/h (0 Bft) O 79 0 min 0,000 mm 0,0 UV-I 0 W/m -3,4 C -0,4 C 0,0 km/h (0 Bft)
03.11.2015 05:25 -0,4 C 80 % 1024,6 hPa 0,0 l/m 0,0 km/h (0 Bft) O 79 0 min 0,000 mm 0,0 UV-I 0 W/m -3,4 C -0,4 C 0,0 km/h (0 Bft)
03.11.2015 05:30 -0,4 C 80 % 1024,6 hPa 0,0 l/m 0,0 km/h (0 Bft) O 79 0 min 0,000 mm 0,0 UV-I 0 W/m -3,4 C -0,4 C 0,0 km/h (0 Bft)
03.11.2015 05:35 -0,4 C 80 % 1024,6 hPa 0,0 l/m 0,0 km/h (0 Bft) O 79 0 min 0,000 mm 0,0 UV-I 0 W/m -3,4 C -0,4 C 0,0 km/h (0 Bft)
03.11.2015 05:40 -0,4 C 80 % 1024,6 hPa 0,0 l/m 0,0 km/h (0 Bft) O 79 0 min 0,000 mm 0,0 UV-I 0 W/m -3,4 C -0,4 C 0,0 km/h (0 Bft)
03.11.2015 05:45 -0,5 C 80 % 1024,7 hPa 0,0 l/m 0,4 km/h (0 Bft) NW 312 0 min 0,000 mm 0,0 UV-I 0 W/m -3,5 C -0,5 C 3,2 km/h (1 Bft)
03.11.2015 05:50 -0,6 C 79 % 1024,6 hPa 0,0 l/m 0,2 km/h (0 Bft) NW 312 0 min 0,000 mm 0,0 UV-I 0 W/m -3,8 C -0,6 C 1,6 km/h (1 Bft)
03.11.2015 05:55 -0,6 C 79 % 1024,5 hPa 0,0 l/m 0,0 km/h (0 Bft) NW 312 0 min 0,000 mm 0,0 UV-I 0 W/m -3,8 C -0,6 C 1,6 km/h (1 Bft)
03.11.2015 06:00 -0,6 C 79 % 1024,4 hPa 0,0 l/m 0,1 km/h (0 Bft) NW 312 0 min 0,000 mm 0,0 UV-I 0 W/m -3,8 C -0,6 C 1,6 km/h (1 Bft)
03.11.2015 06:05 -0,6 C 79 % 1024,5 hPa 0,0 l/m 0,4 km/h (0 Bft) NW 312 0 min 0,000 mm 0,0 UV-I 0 W/m -3,8 C -0,6 C 3,2 km/h (1 Bft)
03.11.2015 06:10 -0,7 C 79 % 1024,6 hPa 0,0 l/m 0,5 km/h (0 Bft) NW 312 0 min 0,000 mm 0,0 UV-I 0 W/m -3,9 C -0,7 C 3,2 km/h (1 Bft)
03.11.2015 06:15 -0,6 C 79 % 1024,5 hPa 0,0 l/m 0,0 km/h (0 Bft) NW 312 0 min 0,000 mm 0,0 UV-I 0 W/m -3,8 C -0,6 C 0,0 km/h (0 Bft)
03.11.2015 06:20 -0,6 C 79 % 1024,3 hPa 0,0 l/m 0,0 km/h (0 Bft) NW 312 0 min 0,000 mm 0,0 UV-I 0 W/m -3,8 C -0,6 C 0,0 km/h (0 Bft)
03.11.2015 06:25 -0,6 C 79 % 1024,4 hPa 0,0 l/m 0,0 km/h (0 Bft) NW 312 0 min 0,000 mm 0,0 UV-I 0 W/m -3,8 C -0,6 C 0,0 km/h (0 Bft)
03.11.2015 06:30 -0,6 C 79 % 1024,4 hPa 0,0 l/m 0,0 km/h (0 Bft) NW 312 0 min 0,000 mm 0,0 UV-I 0 W/m -3,8 C -0,6 C 0,0 km/h (0 Bft)
03.11.2015 06:35 -0,7 C 79 % 1024,4 hPa 0,0 l/m 0,0 km/h (0 Bft) NW 312 0 min 0,000 mm 0,0 UV-I 0 W/m -3,9 C -0,7 C 0,0 km/h (0 Bft)
03.11.2015 06:40 -0,7 C 80 % 1024,4 hPa 0,0 l/m 0,0 km/h (0 Bft) NW 312 0 min 0,000 mm 0,0 UV-I 0 W/m -3,7 C -0,7 C 0,0 km/h (0 Bft)
03.11.2015 06:45 -0,7 C 80 % 1024,4 hPa 0,0 l/m 0,0 km/h (0 Bft) NW 312 0 min 0,000 mm 0,0 UV-I 0 W/m -3,7 C -0,7 C 0,0 km/h (0 Bft)
03.11.2015 06:50 -0,6 C 80 % 1024,3 hPa 0,0 l/m 0,0 km/h (0 Bft) NW 312 0 min 0,000 mm 0,0 UV-I 0 W/m -3,6 C -0,6 C 0,0 km/h (0 Bft)
03.11.2015 06:55 -0,6 C 80 % 1024,2 hPa 0,0 l/m 0,0 km/h (0 Bft) NW 312 0 min 0,000 mm 0,0 UV-I 0 W/m -3,6 C -0,6 C 0,0 km/h (0 Bft)
03.11.2015 07:00 -0,6 C 80 % 1024,2 hPa 0,0 l/m 0,0 km/h (0 Bft) NW 312 0 min 0,000 mm 0,0 UV-I 0 W/m -3,6 C -0,6 C 0,0 km/h (0 Bft)
03.11.2015 07:05 -0,6 C 80 % 1024,3 hPa 0,0 l/m 0,0 km/h (0 Bft) NW 312 0 min 0,000 mm 0,0 UV-I 0 W/m -3,6 C -0,6 C 0,0 km/h (0 Bft)
03.11.2015 07:10 -0,7 C 80 % 1024,2 hPa 0,0 l/m 0,0 km/h (0 Bft) NW 312 0 min 0,000 mm 0,0 UV-I 0 W/m -3,7 C -0,7 C 0,0 km/h (0 Bft)
03.11.2015 07:15 -0,7 C 80 % 1024,4 hPa 0,0 l/m 0,0 km/h (0 Bft) NW 312 0 min 0,000 mm 0,0 UV-I 0 W/m -3,7 C -0,7 C 0,0 km/h (0 Bft)
03.11.2015 07:20 -0,7 C 80 % 1024,3 hPa 0,0 l/m 0,0 km/h (0 Bft) NW 312 0 min 0,000 mm 0,0 UV-I 0 W/m -3,7 C -0,7 C 0,0 km/h (0 Bft)
03.11.2015 07:25 -0,7 C 80 % 1024,3 hPa 0,0 l/m 0,0 km/h (0 Bft) NW 312 0 min 0,000 mm 0,0 UV-I 0 W/m -3,7 C -0,7 C 0,0 km/h (0 Bft)
03.11.2015 07:30 -0,8 C 80 % 1024,2 hPa 0,0 l/m 0,0 km/h (0 Bft) NW 312 0 min 0,000 mm 0,0 UV-I 2 W/m -3,8 C -0,8 C 0,0 km/h (0 Bft)
03.11.2015 07:35 -0,8 C 80 % 1024,3 hPa 0,0 l/m 0,0 km/h (0 Bft) NW 312 0 min 0,000 mm 0,0 UV-I 6 W/m -3,8 C -0,8 C 0,0 km/h (0 Bft)
03.11.2015 07:40 -0,8 C 80 % 1024,2 hPa 0,0 l/m 0,0 km/h (0 Bft) NW 312 0 min 0,000 mm 0,0 UV-I 9 W/m -3,8 C -0,8 C 0,0 km/h (0 Bft)
03.11.2015 07:45 -0,8 C 80 % 1024,3 hPa 0,0 l/m 0,0 km/h (0 Bft) NW 312 0 min 0,000 mm 0,0 UV-I 10 W/m -3,8 C -0,8 C 0,0 km/h (0 Bft)
03.11.2015 07:50 -0,8 C 80 % 1024,2 hPa 0,0 l/m 0,0 km/h (0 Bft) NW 312 0 min 0,000 mm 0,0 UV-I 13 W/m -3,8 C -0,8 C 0,0 km/h (0 Bft)
03.11.2015 07:55 -0,7 C 80 % 1024,2 hPa 0,0 l/m 0,0 km/h (0 Bft) NW 312 0 min 0,000 mm 0,0 UV-I 18 W/m -3,7 C -0,7 C 0,0 km/h (0 Bft)
03.11.2015 08:00 -0,7 C 80 % 1024,2 hPa 0,0 l/m 0,0 km/h (0 Bft) NW 312 0 min 0,000 mm 0,0 UV-I 22 W/m -3,7 C -0,7 C 0,0 km/h (0 Bft)
03.11.2015 08:05 -0,7 C 80 % 1024,2 hPa 0,0 l/m 0,0 km/h (0 Bft) NW 312 0 min 0,000 mm 0,0 UV-I 26 W/m -3,7 C -0,7 C 0,0 km/h (0 Bft)
03.11.2015 08:10 -0,7 C 80 % 1024,3 hPa 0,0 l/m 0,0 km/h (0 Bft) NW 312 0 min 0,000 mm 0,0 UV-I 30 W/m -3,7 C -0,7 C 0,0 km/h (0 Bft)
03.11.2015 08:15 -0,7 C 80 % 1024,4 hPa 0,0 l/m 0,0 km/h (0 Bft) NW 312 0 min 0,000 mm 0,0 UV-I 32 W/m -3,7 C -0,7 C 1,6 km/h (1 Bft)
03.11.2015 08:20 -0,7 C 80 % 1024,4 hPa 0,0 l/m 0,2 km/h (0 Bft) W 268 0 min 0,000 mm 0,0 UV-I 29 W/m -3,7 C -0,7 C 3,2 km/h (1 Bft)
03.11.2015 08:25 -0,7 C 80 % 1024,5 hPa 0,0 l/m 0,6 km/h (0 Bft) W 268 0 min 0,000 mm 0,0 UV-I 33 W/m -3,7 C -0,7 C 3,2 km/h (1 Bft)
03.11.2015 08:30 -0,7 C 80 % 1024,6 hPa 0,0 l/m 0,4 km/h (0 Bft) W 268 0 min 0,000 mm 0,0 UV-I 32 W/m -3,7 C -0,7 C 3,2 km/h (1 Bft)
03.11.2015 08:35 -0,7 C 80 % 1024,5 hPa 0,0 l/m 0,0 km/h (0 Bft) W 268 0 min 0,000 mm 0,0 UV-I 41 W/m -3,7 C -0,7 C 0,0 km/h (0 Bft)
03.11.2015 08:40 -0,7 C 80 % 1024,4 hPa 0,0 l/m 0,0 km/h (0 Bft) W 268 0 min 0,000 mm 0,0 UV-I 49 W/m -3,7 C -0,7 C 1,6 km/h (1 Bft)
03.11.2015 08:45 -0,6 C 80 % 1024,3 hPa 0,0 l/m 0,4 km/h (0 Bft) W 268 0 min 0,000 mm 0,0 UV-I 54 W/m -3,6 C -0,6 C 3,2 km/h (1 Bft)
03.11.2015 08:50 -0,7 C 80 % 1024,3 hPa 0,0 l/m 0,0 km/h (0 Bft) W 268 0 min 0,000 mm 0,0 UV-I 63 W/m -3,7 C -0,7 C 0,0 km/h (0 Bft)
03.11.2015 08:55 -0,7 C 80 % 1024,4 hPa 0,0 l/m 0,0 km/h (0 Bft) W 268 0 min 0,000 mm 0,0 UV-I 68 W/m -3,7 C -0,7 C 0,0 km/h (0 Bft)
03.11.2015 09:00 -0,7 C 80 % 1024,3 hPa 0,0 l/m 0,0 km/h (0 Bft) W 268 0 min 0,025 mm 0,0 UV-I 77 W/m -3,7 C -0,7 C 0,0 km/h (0 Bft)
03.11.2015 09:05 -0,6 C 80 % 1024,3 hPa 0,0 l/m 0,0 km/h (0 Bft) W 268 0 min 0,000 mm 0,0 UV-I 75 W/m -3,6 C -0,6 C 0,0 km/h (0 Bft)
03.11.2015 09:10 -0,5 C 80 % 1024,2 hPa 0,0 l/m 0,0 km/h (0 Bft) W 268 0 min 0,000 mm 0,0 UV-I 68 W/m -3,5 C -0,5 C 0,0 km/h (0 Bft)
03.11.2015 09:15 -0,4 C 80 % 1024,1 hPa 0,0 l/m 0,0 km/h (0 Bft) W 268 0 min 0,000 mm 0,1 UV-I 69 W/m -3,4 C -0,4 C 0,0 km/h (0 Bft)
03.11.2015 09:20 -0,3 C 80 % 1024,1 hPa 0,0 l/m 0,0 km/h (0 Bft) W 268 0 min 0,000 mm 0,5 UV-I 72 W/m -3,3 C -0,3 C 0,0 km/h (0 Bft)
03.11.2015 09:25 -0,3 C 80 % 1024,1 hPa 0,0 l/m 0,0 km/h (0 Bft) W 268 0 min 0,000 mm 0,5 UV-I 80 W/m -3,3 C -0,3 C 0,0 km/h (0 Bft)
03.11.2015 09:30 -0,2 C 80 % 1024,1 hPa 0,0 l/m 0,0 km/h (0 Bft) W 268 0 min 0,000 mm 0,5 UV-I 103 W/m -3,2 C -0,2 C 0,0 km/h (0 Bft)
03.11.2015 09:35 -0,1 C 80 % 1024,0 hPa 0,0 l/m 0,0 km/h (0 Bft) W 268 0 min 0,000 mm 0,5 UV-I 124 W/m -3,1 C -0,1 C 0,0 km/h (0 Bft)
03.11.2015 09:40 0,2 C 80 % 1023,9 hPa 0,0 l/m 0,0 km/h (0 Bft) W 268 0 min 0,000 mm 0,6 UV-I 145 W/m -2,8 C 0,2 C 0,0 km/h (0 Bft)
03.11.2015 09:45 0,2 C 80 % 1023,8 hPa 0,0 l/m 0,0 km/h (0 Bft) W 268 0 min 0,000 mm 0,6 UV-I 146 W/m -2,8 C 0,2 C 0,0 km/h (0 Bft)
03.11.2015 09:50 0,3 C 80 % 1023,6 hPa 0,0 l/m 0,0 km/h (0 Bft) W 268 0 min 0,000 mm 0,6 UV-I 165 W/m -2,7 C 0,3 C 0,0 km/h (0 Bft)
03.11.2015 09:55 0,8 C 80 % 1023,6 hPa 0,0 l/m 0,0 km/h (0 Bft) W 267 5 min 0,000 mm 0,7 UV-I 202 W/m -2,2 C 0,8 C 0,0 km/h (0 Bft)
03.11.2015 10:00 0,9 C 80 % 1023,7 hPa 0,0 l/m 0,0 km/h (0 Bft) W 267 5 min 0,051 mm 0,7 UV-I 191 W/m -2,2 C 0,9 C 0,0 km/h (0 Bft)
03.11.2015 10:05 1,3 C 80 % 1023,7 hPa 0,0 l/m 0,0 km/h (0 Bft) W 267 5 min 0,000 mm 0,7 UV-I 223 W/m -1,8 C 1,3 C 0,0 km/h (0 Bft)
03.11.2015 10:10 1,6 C 80 % 1023,7 hPa 0,0 l/m 0,0 km/h (0 Bft) W 267 5 min 0,000 mm 0,8 UV-I 237 W/m -1,5 C 1,6 C 0,0 km/h (0 Bft)
03.11.2015 10:15 1,3 C 80 % 1023,8 hPa 0,0 l/m 0,0 km/h (0 Bft) W 267 5 min 0,000 mm 0,7 UV-I 210 W/m -1,8 C 1,3 C 1,6 km/h (1 Bft)
03.11.2015 10:20 1,2 C 80 % 1023,7 hPa 0,0 l/m 0,1 km/h (0 Bft) W 267 5 min 0,000 mm 0,8 UV-I 205 W/m -1,9 C 1,2 C 1,6 km/h (1 Bft)
03.11.2015 10:25 1,2 C 80 % 1023,6 hPa 0,0 l/m 0,3 km/h (0 Bft) W 267 0 min 0,000 mm 0,8 UV-I 190 W/m -1,9 C 1,2 C 1,6 km/h (1 Bft)
03.11.2015 10:30 1,2 C 80 % 1023,7 hPa 0,0 l/m 0,3 km/h (0 Bft) W 267 5 min 0,000 mm 0,8 UV-I 198 W/m -1,9 C 1,2 C 3,2 km/h (1 Bft)
03.11.2015 10:35 1,4 C 80 % 1023,6 hPa 0,0 l/m 0,5 km/h (0 Bft) W 267 5 min 0,000 mm 0,9 UV-I 205 W/m -1,7 C 1,4 C 3,2 km/h (1 Bft)
03.11.2015 10:40 1,5 C 80 % 1023,6 hPa 0,0 l/m 0,1 km/h (0 Bft) W 267 5 min 0,000 mm 0,9 UV-I 216 W/m -1,6 C 1,5 C 3,2 km/h (1 Bft)
03.11.2015 10:45 1,6 C 80 % 1023,5 hPa 0,0 l/m 0,0 km/h (0 Bft) W 267 5 min 0,000 mm 0,9 UV-I 236 W/m -1,5 C 1,6 C 0,0 km/h (0 Bft)
03.11.2015 10:50 2,3 C 80 % 1023,4 hPa 0,0 l/m 0,0 km/h (0 Bft) W 267 5 min 0,000 mm 1,0 UV-I 249 W/m -0,8 C 2,3 C 0,0 km/h (0 Bft)
03.11.2015 10:55 3,0 C 80 % 1023,3 hPa 0,0 l/m 0,0 km/h (0 Bft) W 267 5 min 0,000 mm 1,1 UV-I 279 W/m -0,1 C 3,0 C 1,6 km/h (1 Bft)
03.11.2015 11:00 3,5 C 80 % 1023,2 hPa 0,0 l/m 0,0 km/h (0 Bft) W 263 5 min 0,076 mm 1,1 UV-I 317 W/m 0,4 C 3,5 C 0,0 km/h (0 Bft)
03.11.2015 11:05 4,2 C 79 % 1023,1 hPa 0,0 l/m 0,0 km/h (0 Bft) W 263 5 min 0,000 mm 1,2 UV-I 333 W/m 0,9 C 4,2 C 0,0 km/h (0 Bft)
03.11.2015 11:10 4,8 C 80 % 1023,0 hPa 0,0 l/m 0,0 km/h (0 Bft) W 263 5 min 0,000 mm 1,2 UV-I 341 W/m 1,6 C 4,8 C 0,0 km/h (0 Bft)
03.11.2015 11:15 5,6 C 81 % 1023,0 hPa 0,0 l/m 0,0 km/h (0 Bft) W 263 5 min 0,000 mm 1,2 UV-I 350 W/m 2,6 C 5,6 C 0,0 km/h (0 Bft)
03.11.2015 11:20 5,9 C 81 % 1022,9 hPa 0,0 l/m 0,0 km/h (0 Bft) W 263 5 min 0,000 mm 1,3 UV-I 357 W/m 2,9 C 5,9 C 0,0 km/h (0 Bft)
03.11.2015 11:25 6,6 C 80 % 1022,9 hPa 0,0 l/m 0,0 km/h (0 Bft) W 263 5 min 0,000 mm 1,3 UV-I 366 W/m 3,4 C 6,6 C 0,0 km/h (0 Bft)
03.11.2015 11:30 6,9 C 79 % 1022,8 hPa 0,0 l/m 0,0 km/h (0 Bft) W 263 5 min 0,000 mm 1,3 UV-I 379 W/m 3,5 C 6,9 C 0,0 km/h (0 Bft)
03.11.2015 11:35 7,3 C 79 % 1022,6 hPa 0,0 l/m 0,0 km/h (0 Bft) W 263 5 min 0,000 mm 1,3 UV-I 392 W/m 3,9 C 7,3 C 0,0 km/h (0 Bft)
03.11.2015 11:40 7,1 C 77 % 1022,6 hPa 0,0 l/m 0,0 km/h (0 Bft) W 263 5 min 0,000 mm 1,4 UV-I 401 W/m 3,3 C 7,1 C 0,0 km/h (0 Bft)
03.11.2015 11:45 6,8 C 78 % 1022,6 hPa 0,0 l/m 0,0 km/h (0 Bft) W 263 5 min 0,000 mm 1,4 UV-I 407 W/m 3,2 C 6,8 C 0,0 km/h (0 Bft)
03.11.2015 11:50 7,6 C 77 % 1022,5 hPa 0,0 l/m 0,0 km/h (0 Bft) W 263 5 min 0,000 mm 1,4 UV-I 411 W/m 3,8 C 7,6 C 0,0 km/h (0 Bft)
03.11.2015 11:55 7,6 C 78 % 1022,4 hPa 0,0 l/m 0,0 km/h (0 Bft) SO 132 5 min 0,000 mm 1,4 UV-I 412 W/m 4,0 C 7,6 C 1,6 km/h (1 Bft)
03.11.2015 12:00 8,5 C 77 % 1022,4 hPa 0,0 l/m 0,0 km/h (0 Bft) S 178 5 min 0,000 mm 1,4 UV-I 414 W/m 4,7 C 8,5 C 0,0 km/h (0 Bft)
03.11.2015 12:05 9,3 C 74 % 1022,4 hPa 0,0 l/m 0,0 km/h (0 Bft) S 178 5 min 0,153 mm 1,4 UV-I 415 W/m 4,9 C 9,3 C 1,6 km/h (1 Bft)
03.11.2015 12:10 9,4 C 72 % 1022,3 hPa 0,0 l/m 0,0 km/h (0 Bft) S 177 5 min 0,000 mm 1,4 UV-I 416 W/m 4,6 C 9,4 C 0,0 km/h (0 Bft)
03.11.2015 12:15 9,5 C 73 % 1022,3 hPa 0,0 l/m 0,1 km/h (0 Bft) S-SO 148 5 min 0,000 mm 1,4 UV-I 413 W/m 4,9 C 9,5 C 1,6 km/h (1 Bft)
03.11.2015 12:20 9,9 C 73 % 1022,2 hPa 0,0 l/m 0,1 km/h (0 Bft) S-SW 210 5 min 0,000 mm 1,4 UV-I 401 W/m 5,3 C 9,9 C 3,2 km/h (1 Bft)
03.11.2015 12:25 9,6 C 75 % 1022,2 hPa 0,0 l/m 0,0 km/h (0 Bft) SW 231 5 min 0,000 mm 1,4 UV-I 411 W/m 5,4 C 9,6 C 0,0 km/h (0 Bft)
03.11.2015 12:30 10,3 C 72 % 1022,1 hPa 0,0 l/m 0,0 km/h (0 Bft) SW 231 5 min 0,000 mm 1,4 UV-I 422 W/m 5,5 C 10,3 C 0,0 km/h (0 Bft)
03.11.2015 12:35 11,1 C 70 % 1022,1 hPa 0,0 l/m 0,0 km/h (0 Bft) S-SW 212 5 min 0,000 mm 1,4 UV-I 424 W/m 5,8 C 11,1 C 1,6 km/h (1 Bft)
03.11.2015 12:40 11,1 C 70 % 1022,0 hPa 0,0 l/m 0,0 km/h (0 Bft) S-SO 164 5 min 0,000 mm 1,4 UV-I 424 W/m 5,8 C 11,1 C 1,6 km/h (1 Bft)
03.11.2015 12:45 11,2 C 70 % 1022,0 hPa 0,0 l/m 0,6 km/h (0 Bft) O-SO 102 5 min 0,000 mm 1,4 UV-I 422 W/m 5,9 C 11,2 C 4,8 km/h (1 Bft)
03.11.2015 12:50 11,1 C 68 % 1021,9 hPa 0,0 l/m 1,5 km/h (1 Bft) SO 132 5 min 0,000 mm 1,4 UV-I 421 W/m 5,4 C 11,1 C 4,8 km/h (1 Bft)
03.11.2015 12:55 11,3 C 70 % 1022,0 hPa 0,0 l/m 0,5 km/h (0 Bft) O-SO 109 5 min 0,000 mm 1,4 UV-I 421 W/m 6,0 C 11,3 C 4,8 km/h (1 Bft)
03.11.2015 13:00 12,1 C 66 % 1021,8 hPa 0,0 l/m 2,4 km/h (1 Bft) O 88 5 min 0,000 mm 1,3 UV-I 417 W/m 5,9 C 12,1 C 4,8 km/h (1 Bft)
03.11.2015 13:05 12,3 C 64 % 1021,7 hPa 0,0 l/m 2,0 km/h (1 Bft) O 101 5 min 0,203 mm 1,3 UV-I 415 W/m 5,7 C 12,3 C 9,7 km/h (2 Bft)
03.11.2015 13:10 11,6 C 67 % 1021,7 hPa 0,0 l/m 2,7 km/h (1 Bft) S-SO 157 5 min 0,000 mm 1,3 UV-I 412 W/m 5,7 C 11,6 C 8,0 km/h (2 Bft)
03.11.2015 13:15 11,6 C 67 % 1021,7 hPa 0,0 l/m 1,2 km/h (1 Bft) O-SO 104 5 min 0,000 mm 1,3 UV-I 408 W/m 5,7 C 11,6 C 6,4 km/h (2 Bft)
03.11.2015 13:20 12,1 C 67 % 1021,7 hPa 0,0 l/m 1,3 km/h (1 Bft) SO 139 5 min 0,000 mm 1,3 UV-I 380 W/m 6,2 C 12,1 C 4,8 km/h (1 Bft)
03.11.2015 13:25 12,2 C 66 % 1021,6 hPa 0,0 l/m 1,7 km/h (1 Bft) O-NO 61 5 min 0,000 mm 1,2 UV-I 345 W/m 6,0 C 12,2 C 8,0 km/h (2 Bft)
03.11.2015 13:30 13,1 C 62 % 1021,6 hPa 0,0 l/m 0,0 km/h (0 Bft) O-NO 78 5 min 0,000 mm 1,1 UV-I 334 W/m 6,0 C 13,1 C 1,6 km/h (1 Bft)
03.11.2015 13:35 13,7 C 60 % 1021,6 hPa 0,0 l/m 0,3 km/h (0 Bft) O 80 5 min 0,000 mm 1,1 UV-I 320 W/m 6,1 C 13,7 C 4,8 km/h (1 Bft)
03.11.2015 13:40 13,1 C 63 % 1021,6 hPa 0,0 l/m 0,1 km/h (0 Bft) O-SO 116 5 min 0,000 mm 1,0 UV-I 290 W/m 6,2 C 13,1 C 1,6 km/h (1 Bft)
03.11.2015 13:45 12,2 C 67 % 1021,5 hPa 0,0 l/m 0,6 km/h (0 Bft) S 185 5 min 0,000 mm 1,0 UV-I 339 W/m 6,3 C 12,2 C 4,8 km/h (1 Bft)
03.11.2015 13:50 13,1 C 65 % 1021,5 hPa 0,0 l/m 0,1 km/h (0 Bft) S-SW 208 5 min 0,000 mm 1,0 UV-I 343 W/m 6,7 C 13,1 C 1,6 km/h (1 Bft)
03.11.2015 13:55 13,6 C 64 % 1021,4 hPa 0,0 l/m 0,0 km/h (0 Bft) S 177 5 min 0,000 mm 1,0 UV-I 366 W/m 6,9 C 13,6 C 0,0 km/h (0 Bft)
03.11.2015 14:00 13,3 C 64 % 1021,4 hPa 0,0 l/m 0,8 km/h (0 Bft) S 180 5 min 0,000 mm 1,0 UV-I 409 W/m 6,6 C 13,3 C 4,8 km/h (1 Bft)
03.11.2015 14:05 13,9 C 62 % 1021,5 hPa 0,0 l/m 0,0 km/h (0 Bft) S 184 5 min 0,178 mm 1,0 UV-I 381 W/m 6,7 C 13,9 C 1,6 km/h (1 Bft)
03.11.2015 14:10 14,0 C 61 % 1021,4 hPa 0,0 l/m 0,0 km/h (0 Bft) S 184 5 min 0,000 mm 1,0 UV-I 338 W/m 6,6 C 14,0 C 1,6 km/h (1 Bft)
03.11.2015 14:15 13,6 C 60 % 1021,4 hPa 0,0 l/m 0,1 km/h (0 Bft) S 186 5 min 0,000 mm 0,9 UV-I 242 W/m 6,0 C 13,6 C 1,6 km/h (1 Bft)
03.11.2015 14:20 13,6 C 63 % 1021,3 hPa 0,0 l/m 0,0 km/h (0 Bft) S 186 5 min 0,000 mm 0,8 UV-I 246 W/m 6,7 C 13,6 C 1,6 km/h (1 Bft)
03.11.2015 14:25 13,8 C 61 % 1021,2 hPa 0,0 l/m 0,0 km/h (0 Bft) S 186 5 min 0,000 mm 0,8 UV-I 244 W/m 6,4 C 13,8 C 0,0 km/h (0 Bft)
03.11.2015 14:30 13,5 C 60 % 1021,2 hPa 0,0 l/m 0,0 km/h (0 Bft) S 186 5 min 0,000 mm 0,8 UV-I 248 W/m 5,9 C 13,5 C 0,0 km/h (0 Bft)
03.11.2015 14:35 13,3 C 62 % 1021,2 hPa 0,0 l/m 0,0 km/h (0 Bft) S 186 5 min 0,000 mm 0,7 UV-I 253 W/m 6,2 C 13,3 C 1,6 km/h (1 Bft)
03.11.2015 14:40 13,2 C 62 % 1021,2 hPa 0,0 l/m 0,0 km/h (0 Bft) S 186 5 min 0,000 mm 0,7 UV-I 219 W/m 6,1 C 13,2 C 1,6 km/h (1 Bft)
03.11.2015 14:45 12,7 C 66 % 1021,2 hPa 0,0 l/m 0,0 km/h (0 Bft) S 186 0 min 0,000 mm 0,6 UV-I 146 W/m 6,5 C 12,7 C 0,0 km/h (0 Bft)
03.11.2015 14:50 12,9 C 65 % 1021,0 hPa 0,0 l/m 0,0 km/h (0 Bft) S 186 5 min 0,000 mm 0,6 UV-I 234 W/m 6,5 C 12,9 C 1,6 km/h (1 Bft)
03.11.2015 14:55 13,4 C 64 % 1020,9 hPa 0,0 l/m 0,0 km/h (0 Bft) S 185 5 min 0,000 mm 0,6 UV-I 285 W/m 6,7 C 13,4 C 1,6 km/h (1 Bft)
03.11.2015 15:00 13,6 C 64 % 1021,0 hPa 0,0 l/m 0,0 km/h (0 Bft) S 175 5 min 0,000 mm 0,6 UV-I 270 W/m 6,9 C 13,6 C 0,0 km/h (0 Bft)
03.11.2015 15:05 13,4 C 62 % 1020,9 hPa 0,0 l/m 0,0 km/h (0 Bft) S 175 5 min 0,127 mm 0,5 UV-I 213 W/m 6,3 C 13,4 C 1,6 km/h (1 Bft)
03.11.2015 15:10 12,6 C 65 % 1020,9 hPa 0,0 l/m 0,1 km/h (0 Bft) S 175 5 min 0,000 mm 0,5 UV-I 179 W/m 6,2 C 12,6 C 3,2 km/h (1 Bft)
03.11.2015 15:15 12,3 C 66 % 1020,9 hPa 0,0 l/m 0,8 km/h (0 Bft) S-SO 153 0 min 0,000 mm 0,3 UV-I 96 W/m 6,1 C 12,3 C 4,8 km/h (1 Bft)
03.11.2015 15:20 11,9 C 68 % 1020,9 hPa 0,0 l/m 0,0 km/h (0 Bft) S-SO 149 0 min 0,000 mm 0,0 UV-I 65 W/m 6,2 C 11,9 C 1,6 km/h (1 Bft)
03.11.2015 15:25 11,4 C 70 % 1020,9 hPa 0,0 l/m 0,0 km/h (0 Bft) S-SO 149 0 min 0,000 mm 0,0 UV-I 67 W/m 6,1 C 11,4 C 0,0 km/h (0 Bft)
03.11.2015 15:30 11,7 C 68 % 1020,8 hPa 0,0 l/m 0,0 km/h (0 Bft) S-SO 149 0 min 0,000 mm 0,0 UV-I 64 W/m 6,0 C 11,7 C 0,0 km/h (0 Bft)
03.11.2015 15:35 11,9 C 67 % 1020,8 hPa 0,0 l/m 0,0 km/h (0 Bft) S-SO 149 5 min 0,000 mm 0,0 UV-I 110 W/m 6,0 C 11,9 C 0,0 km/h (0 Bft)
03.11.2015 15:40 11,8 C 69 % 1020,8 hPa 0,0 l/m 0,0 km/h (0 Bft) S-SO 149 5 min 0,000 mm 0,0 UV-I 149 W/m 6,3 C 11,8 C 0,0 km/h (0 Bft)
03.11.2015 15:45 12,1 C 69 % 1020,8 hPa 0,0 l/m 0,0 km/h (0 Bft) S-SO 149 5 min 0,000 mm 0,0 UV-I 153 W/m 6,6 C 12,1 C 0,0 km/h (0 Bft)
03.11.2015 15:50 11,7 C 69 % 1020,9 hPa 0,0 l/m 0,0 km/h (0 Bft) S-SO 149 5 min 0,000 mm 0,0 UV-I 119 W/m 6,2 C 11,7 C 1,6 km/h (1 Bft)
03.11.2015 15:55 11,1 C 71 % 1020,9 hPa 0,0 l/m 0,0 km/h (0 Bft) S-SO 149 5 min 0,000 mm 0,0 UV-I 84 W/m 6,0 C 11,1 C 0,0 km/h (0 Bft)
03.11.2015 16:00 11,2 C 72 % 1021,1 hPa 0,0 l/m 0,0 km/h (0 Bft) S-SO 149 0 min 0,000 mm 0,0 UV-I 64 W/m 6,3 C 11,2 C 0,0 km/h (0 Bft)
03.11.2015 16:05 11,2 C 72 % 1021,1 hPa 0,0 l/m 0,0 km/h (0 Bft) S-SO 149 0 min 0,051 mm 0,0 UV-I 58 W/m 6,3 C 11,2 C 0,0 km/h (0 Bft)
03.11.2015 16:10 11,1 C 72 % 1021,1 hPa 0,0 l/m 0,0 km/h (0 Bft) S-SO 149 0 min 0,000 mm 0,0 UV-I 50 W/m 6,2 C 11,1 C 0,0 km/h (0 Bft)
03.11.2015 16:15 10,9 C 72 % 1021,2 hPa 0,0 l/m 0,0 km/h (0 Bft) S-SO 149 0 min 0,000 mm 0,0 UV-I 42 W/m 6,1 C 10,9 C 1,6 km/h (1 Bft)
03.11.2015 16:20 10,6 C 72 % 1021,3 hPa 0,0 l/m 0,0 km/h (0 Bft) S-SO 150 0 min 0,000 mm 0,0 UV-I 35 W/m 5,8 C 10,6 C 0,0 km/h (0 Bft)
03.11.2015 16:25 10,1 C 73 % 1021,5 hPa 0,0 l/m 0,0 km/h (0 Bft) S-SO 150 0 min 0,000 mm 0,0 UV-I 29 W/m 5,5 C 10,1 C 0,0 km/h (0 Bft)
03.11.2015 16:30 9,8 C 74 % 1021,4 hPa 0,0 l/m 0,0 km/h (0 Bft) S-SO 150 0 min 0,000 mm 0,0 UV-I 28 W/m 5,4 C 9,8 C 0,0 km/h (0 Bft)
03.11.2015 16:35 9,8 C 75 % 1021,3 hPa 0,0 l/m 0,0 km/h (0 Bft) S-SO 150 5 min 0,000 mm 0,0 UV-I 29 W/m 5,6 C 9,8 C 0,0 km/h (0 Bft)
03.11.2015 16:40 9,7 C 74 % 1021,2 hPa 0,0 l/m 0,0 km/h (0 Bft) S-SO 150 5 min 0,000 mm 0,0 UV-I 21 W/m 5,3 C 9,7 C 0,0 km/h (0 Bft)
03.11.2015 16:45 9,7 C 74 % 1021,2 hPa 0,0 l/m 0,0 km/h (0 Bft) S-SO 150 5 min 0,000 mm 0,0 UV-I 16 W/m 5,3 C 9,7 C 0,0 km/h (0 Bft)
03.11.2015 16:50 9,6 C 73 % 1021,1 hPa 0,0 l/m 0,0 km/h (0 Bft) S-SO 150 0 min 0,000 mm 0,0 UV-I 9 W/m 5,0 C 9,6 C 0,0 km/h (0 Bft)
03.11.2015 16:55 9,4 C 74 % 1021,1 hPa 0,0 l/m 0,0 km/h (0 Bft) S-SO 150 0 min 0,000 mm 0,0 UV-I 5 W/m 5,0 C 9,4 C 0,0 km/h (0 Bft)
03.11.2015 17:00 9,2 C 75 % 1021,2 hPa 0,0 l/m 0,0 km/h (0 Bft) S-SO 150 0 min 0,000 mm 0,0 UV-I 0 W/m 5,0 C 9,2 C 0,0 km/h (0 Bft)
03.11.2015 17:05 8,9 C 76 % 1021,2 hPa 0,0 l/m 0,0 km/h (0 Bft) S-SO 150 0 min 0,025 mm 0,0 UV-I 0 W/m 4,9 C 8,9 C 0,0 km/h (0 Bft)
03.11.2015 17:10 8,7 C 76 % 1021,1 hPa 0,0 l/m 0,0 km/h (0 Bft) S-SO 150 0 min 0,000 mm 0,0 UV-I 0 W/m 4,7 C 8,7 C 0,0 km/h (0 Bft)
03.11.2015 17:15 8,4 C 76 % 1021,2 hPa 0,0 l/m 0,0 km/h (0 Bft) S-SO 150 0 min 0,000 mm 0,0 UV-I 0 W/m 4,4 C 8,4 C 0,0 km/h (0 Bft)
03.11.2015 17:20 8,2 C 77 % 1021,3 hPa 0,0 l/m 0,0 km/h (0 Bft) S-SO 150 0 min 0,000 mm 0,0 UV-I 0 W/m 4,4 C 8,2 C 0,0 km/h (0 Bft)
03.11.2015 17:25 7,9 C 77 % 1021,3 hPa 0,0 l/m 0,0 km/h (0 Bft) S-SO 150 0 min 0,000 mm 0,0 UV-I 0 W/m 4,1 C 7,9 C 0,0 km/h (0 Bft)
03.11.2015 17:30 7,7 C 78 % 1021,2 hPa 0,0 l/m 0,0 km/h (0 Bft) S-SO 150 0 min 0,000 mm 0,0 UV-I 0 W/m 4,1 C 7,7 C 0,0 km/h (0 Bft)
03.11.2015 17:35 7,4 C 78 % 1021,1 hPa 0,0 l/m 0,0 km/h (0 Bft) S-SO 150 0 min 0,000 mm 0,0 UV-I 0 W/m 3,8 C 7,4 C 0,0 km/h (0 Bft)
03.11.2015 17:40 7,3 C 78 % 1021,1 hPa 0,0 l/m 0,0 km/h (0 Bft) S-SO 150 0 min 0,000 mm 0,0 UV-I 0 W/m 3,7 C 7,3 C 0,0 km/h (0 Bft)
03.11.2015 17:45 7,1 C 78 % 1021,1 hPa 0,0 l/m 0,0 km/h (0 Bft) S-SO 150 0 min 0,000 mm 0,0 UV-I 0 W/m 3,5 C 7,1 C 0,0 km/h (0 Bft)
03.11.2015 17:50 6,8 C 79 % 1021,1 hPa 0,0 l/m 0,0 km/h (0 Bft) S-SO 150 0 min 0,000 mm 0,0 UV-I 0 W/m 3,4 C 6,8 C 0,0 km/h (0 Bft)
03.11.2015 17:55 6,7 C 79 % 1021,2 hPa 0,0 l/m 0,0 km/h (0 Bft) S-SO 150 0 min 0,000 mm 0,0 UV-I 0 W/m 3,3 C 6,7 C 0,0 km/h (0 Bft)
03.11.2015 18:00 6,5 C 80 % 1021,4 hPa 0,0 l/m 0,0 km/h (0 Bft) S-SO 150 0 min 0,000 mm 0,0 UV-I 0 W/m 3,3 C 6,5 C 0,0 km/h (0 Bft)
03.11.2015 18:05 6,4 C 80 % 1021,4 hPa 0,0 l/m 0,0 km/h (0 Bft) S-SO 150 0 min 0,000 mm 0,0 UV-I 0 W/m 3,2 C 6,4 C 0,0 km/h (0 Bft)
03.11.2015 18:10 6,2 C 80 % 1021,4 hPa 0,0 l/m 0,0 km/h (0 Bft) S-SO 150 0 min 0,000 mm 0,0 UV-I 0 W/m 3,0 C 6,2 C 0,0 km/h (0 Bft)
03.11.2015 18:15 6,0 C 80 % 1021,3 hPa 0,0 l/m 0,0 km/h (0 Bft) S-SO 150 0 min 0,000 mm 0,0 UV-I 0 W/m 2,8 C 6,0 C 0,0 km/h (0 Bft)
03.11.2015 18:20 5,8 C 80 % 1021,3 hPa 0,0 l/m 0,0 km/h (0 Bft) S-SO 150 0 min 0,000 mm 0,0 UV-I 0 W/m 2,6 C 5,8 C 0,0 km/h (0 Bft)
03.11.2015 18:25 5,7 C 80 % 1021,3 hPa 0,0 l/m 0,0 km/h (0 Bft) S-SO 150 0 min 0,000 mm 0,0 UV-I 0 W/m 2,5 C 5,7 C 0,0 km/h (0 Bft)
03.11.2015 18:30 5,6 C 80 % 1021,4 hPa 0,0 l/m 0,0 km/h (0 Bft) S-SO 150 0 min 0,000 mm 0,0 UV-I 0 W/m 2,4 C 5,6 C 0,0 km/h (0 Bft)
03.11.2015 18:35 5,4 C 80 % 1021,4 hPa 0,0 l/m 0,0 km/h (0 Bft) S-SO 150 0 min 0,000 mm 0,0 UV-I 0 W/m 2,2 C 5,4 C 0,0 km/h (0 Bft)
03.11.2015 18:40 5,3 C 80 % 1021,3 hPa 0,0 l/m 0,0 km/h (0 Bft) S-SO 150 0 min 0,000 mm 0,0 UV-I 0 W/m 2,1 C 5,3 C 0,0 km/h (0 Bft)
03.11.2015 18:45 5,2 C 80 % 1021,3 hPa 0,0 l/m 0,0 km/h (0 Bft) S-SO 150 0 min 0,000 mm 0,0 UV-I 0 W/m 2,0 C 5,2 C 0,0 km/h (0 Bft)
03.11.2015 18:50 5,1 C 80 % 1021,4 hPa 0,0 l/m 0,0 km/h (0 Bft) S-SO 150 0 min 0,000 mm 0,0 UV-I 0 W/m 1,9 C 5,1 C 0,0 km/h (0 Bft)
03.11.2015 18:55 4,9 C 80 % 1021,3 hPa 0,0 l/m 0,0 km/h (0 Bft) S-SO 150 0 min 0,000 mm 0,0 UV-I 0 W/m 1,7 C 4,9 C 0,0 km/h (0 Bft)
03.11.2015 19:00 4,8 C 81 % 1021,3 hPa 0,0 l/m 0,0 km/h (0 Bft) S-SO 150 0 min 0,000 mm 0,0 UV-I 0 W/m 1,8 C 4,8 C 0,0 km/h (0 Bft)
03.11.2015 19:05 4,6 C 81 % 1021,3 hPa 0,0 l/m 0,0 km/h (0 Bft) S-SO 150 0 min 0,000 mm 0,0 UV-I 0 W/m 1,6 C 4,6 C 0,0 km/h (0 Bft)
03.11.2015 19:10 4,4 C 81 % 1021,3 hPa 0,0 l/m 0,0 km/h (0 Bft) S-SO 150 0 min 0,000 mm 0,0 UV-I 0 W/m 1,4 C 4,4 C 0,0 km/h (0 Bft)
03.11.2015 19:15 4,3 C 80 % 1021,3 hPa 0,0 l/m 0,0 km/h (0 Bft) S-SO 150 0 min 0,000 mm 0,0 UV-I 0 W/m 1,2 C 4,3 C 0,0 km/h (0 Bft)
03.11.2015 19:20 4,3 C 80 % 1021,2 hPa 0,0 l/m 0,0 km/h (0 Bft) S-SO 150 0 min 0,000 mm 0,0 UV-I 0 W/m 1,2 C 4,3 C 0,0 km/h (0 Bft)
03.11.2015 19:25 4,2 C 80 % 1021,2 hPa 0,0 l/m 0,0 km/h (0 Bft) S-SO 150 0 min 0,000 mm 0,0 UV-I 0 W/m 1,1 C 4,2 C 0,0 km/h (0 Bft)
03.11.2015 19:30 4,3 C 80 % 1021,2 hPa 0,0 l/m 0,0 km/h (0 Bft) S-SO 150 0 min 0,000 mm 0,0 UV-I 0 W/m 1,2 C 4,3 C 0,0 km/h (0 Bft)
03.11.2015 19:35 4,2 C 80 % 1021,3 hPa 0,0 l/m 0,0 km/h (0 Bft) S-SO 150 0 min 0,000 mm 0,0 UV-I 0 W/m 1,1 C 4,2 C 0,0 km/h (0 Bft)
03.11.2015 19:40 4,1 C 80 % 1021,3 hPa 0,0 l/m 0,0 km/h (0 Bft) S-SO 150 0 min 0,000 mm 0,0 UV-I 0 W/m 1,0 C 4,1 C 0,0 km/h (0 Bft)
03.11.2015 19:45 4,1 C 80 % 1021,1 hPa 0,0 l/m 0,0 km/h (0 Bft) S-SO 150 0 min 0,000 mm 0,0 UV-I 0 W/m 1,0 C 4,1 C 0,0 km/h (0 Bft)
03.11.2015 19:50 3,9 C 80 % 1021,0 hPa 0,0 l/m 0,0 km/h (0 Bft) S-SO 150 0 min 0,000 mm 0,0 UV-I 0 W/m 0,8 C 3,9 C 0,0 km/h (0 Bft)
03.11.2015 19:55 3,9 C 80 % 1020,9 hPa 0,0 l/m 0,0 km/h (0 Bft) S-SO 150 0 min 0,000 mm 0,0 UV-I 0 W/m 0,8 C 3,9 C 0,0 km/h (0 Bft)
03.11.2015 20:00 3,7 C 80 % 1021,0 hPa 0,0 l/m 0,0 km/h (0 Bft) S-SO 150 0 min 0,000 mm 0,0 UV-I 0 W/m 0,6 C 3,7 C 0,0 km/h (0 Bft)
03.11.2015 20:05 3,4 C 81 % 1021,1 hPa 0,0 l/m 0,0 km/h (0 Bft) S-SO 150 0 min 0,000 mm 0,0 UV-I 0 W/m 0,5 C 3,4 C 0,0 km/h (0 Bft)
03.11.2015 20:10 3,4 C 80 % 1021,2 hPa 0,0 l/m 0,0 km/h (0 Bft) S-SO 150 0 min 0,000 mm 0,0 UV-I 0 W/m 0,3 C 3,4 C 0,0 km/h (0 Bft)
03.11.2015 20:15 3,4 C 80 % 1021,3 hPa 0,0 l/m 0,0 km/h (0 Bft) S-SO 150 0 min 0,000 mm 0,0 UV-I 0 W/m 0,3 C 3,4 C 0,0 km/h (0 Bft)
03.11.2015 20:20 3,4 C 80 % 1021,3 hPa 0,0 l/m 0,0 km/h (0 Bft) S-SO 150 0 min 0,000 mm 0,0 UV-I 0 W/m 0,3 C 3,4 C 0,0 km/h (0 Bft)
03.11.2015 20:25 3,5 C 80 % 1021,4 hPa 0,0 l/m 0,0 km/h (0 Bft) S-SO 150 0 min 0,000 mm 0,0 UV-I 0 W/m 0,4 C 3,5 C 0,0 km/h (0 Bft)
03.11.2015 20:30 3,4 C 80 % 1021,3 hPa 0,0 l/m 0,0 km/h (0 Bft) S-SO 150 0 min 0,000 mm 0,0 UV-I 0 W/m 0,3 C 3,4 C 0,0 km/h (0 Bft)
03.11.2015 20:35 3,2 C 80 % 1021,3 hPa 0,0 l/m 0,0 km/h (0 Bft) S-SO 150 0 min 0,000 mm 0,0 UV-I 0 W/m 0,1 C 3,2 C 0,0 km/h (0 Bft)
03.11.2015 20:40 3,3 C 79 % 1021,4 hPa 0,0 l/m 0,0 km/h (0 Bft) S-SO 150 0 min 0,000 mm 0,0 UV-I 0 W/m 0,0 C 3,3 C 0,0 km/h (0 Bft)
03.11.2015 20:45 3,2 C 80 % 1021,6 hPa 0,0 l/m 0,0 km/h (0 Bft) S-SO 150 0 min 0,000 mm 0,0 UV-I 0 W/m 0,1 C 3,2 C 0,0 km/h (0 Bft)
03.11.2015 20:50 3,1 C 80 % 1021,6 hPa 0,0 l/m 0,0 km/h (0 Bft) S-SO 150 0 min 0,000 mm 0,0 UV-I 0 W/m -0,0 C 3,1 C 0,0 km/h (0 Bft)
03.11.2015 20:55 3,1 C 80 % 1021,7 hPa 0,0 l/m 0,0 km/h (0 Bft) S-SO 150 0 min 0,000 mm 0,0 UV-I 0 W/m -0,0 C 3,1 C 0,0 km/h (0 Bft)
03.11.2015 21:00 3,1 C 79 % 1021,8 hPa 0,0 l/m 0,0 km/h (0 Bft) S-SO 150 0 min 0,000 mm 0,0 UV-I 0 W/m -0,2 C 3,1 C 0,0 km/h (0 Bft)
03.11.2015 21:05 3,1 C 79 % 1021,7 hPa 0,0 l/m 0,0 km/h (0 Bft) S-SO 150 0 min 0,000 mm 0,0 UV-I 0 W/m -0,2 C 3,1 C 0,0 km/h (0 Bft)
03.11.2015 21:10 3,1 C 79 % 1021,7 hPa 0,0 l/m 0,0 km/h (0 Bft) S-SO 150 0 min 0,000 mm 0,0 UV-I 0 W/m -0,2 C 3,1 C 0,0 km/h (0 Bft)
03.11.2015 21:15 3,1 C 79 % 1021,6 hPa 0,0 l/m 0,0 km/h (0 Bft) S-SO 150 0 min 0,000 mm 0,0 UV-I 0 W/m -0,2 C 3,1 C 0,0 km/h (0 Bft)
03.11.2015 21:20 3,1 C 79 % 1021,7 hPa 0,0 l/m 0,0 km/h (0 Bft) S-SO 150 0 min 0,000 mm 0,0 UV-I 0 W/m -0,2 C 3,1 C 0,0 km/h (0 Bft)
03.11.2015 21:25 2,9 C 80 % 1021,6 hPa 0,0 l/m 0,0 km/h (0 Bft) S-SO 150 0 min 0,000 mm 0,0 UV-I 0 W/m -0,2 C 2,9 C 0,0 km/h (0 Bft)
03.11.2015 21:30 2,8 C 80 % 1021,7 hPa 0,0 l/m 0,0 km/h (0 Bft) S-SO 150 0 min 0,000 mm 0,0 UV-I 0 W/m -0,3 C 2,8 C 0,0 km/h (0 Bft)
03.11.2015 21:35 2,8 C 80 % 1021,6 hPa 0,0 l/m 0,0 km/h (0 Bft) S-SO 150 0 min 0,000 mm 0,0 UV-I 0 W/m -0,3 C 2,8 C 0,0 km/h (0 Bft)
03.11.2015 21:40 2,8 C 80 % 1021,4 hPa 0,0 l/m 0,0 km/h (0 Bft) S-SO 150 0 min 0,000 mm 0,0 UV-I 0 W/m -0,3 C 2,8 C 0,0 km/h (0 Bft)
03.11.2015 21:45 2,8 C 80 % 1021,4 hPa 0,0 l/m 0,0 km/h (0 Bft) S-SO 150 0 min 0,000 mm 0,0 UV-I 0 W/m -0,3 C 2,8 C 0,0 km/h (0 Bft)
03.11.2015 21:50 2,8 C 80 % 1021,4 hPa 0,0 l/m 0,0 km/h (0 Bft) S-SO 150 0 min 0,000 mm 0,0 UV-I 0 W/m -0,3 C 2,8 C 0,0 km/h (0 Bft)
03.11.2015 21:55 2,9 C 79 % 1021,8 hPa 0,0 l/m 0,0 km/h (0 Bft) S-SO 150 0 min 0,000 mm 0,0 UV-I 0 W/m -0,4 C 2,9 C 0,0 km/h (0 Bft)
03.11.2015 22:00 2,9 C 79 % 1021,5 hPa 0,0 l/m 0,0 km/h (0 Bft) S-SO 150 0 min 0,000 mm 0,0 UV-I 0 W/m -0,4 C 2,9 C 0,0 km/h (0 Bft)
03.11.2015 22:05 2,8 C 79 % 1021,6 hPa 0,0 l/m 0,0 km/h (0 Bft) S-SO 150 0 min 0,000 mm 0,0 UV-I 0 W/m -0,5 C 2,8 C 0,0 km/h (0 Bft)
03.11.2015 22:10 2,9 C 79 % 1021,8 hPa 0,0 l/m 0,0 km/h (0 Bft) S-SO 150 0 min 0,000 mm 0,0 UV-I 0 W/m -0,4 C 2,9 C 0,0 km/h (0 Bft)
03.11.2015 22:15 2,8 C 80 % 1022,0 hPa 0,0 l/m 0,2 km/h (0 Bft) SW 219 0 min 0,000 mm 0,0 UV-I 0 W/m -0,3 C 2,8 C 3,2 km/h (1 Bft)
03.11.2015 22:20 2,8 C 80 % 1022,0 hPa 0,0 l/m 0,0 km/h (0 Bft) SW 219 0 min 0,000 mm 0,0 UV-I 0 W/m -0,3 C 2,8 C 0,0 km/h (0 Bft)
03.11.2015 22:25 2,8 C 80 % 1022,1 hPa 0,0 l/m 0,0 km/h (0 Bft) SW 219 0 min 0,000 mm 0,0 UV-I 0 W/m -0,3 C 2,8 C 0,0 km/h (0 Bft)
03.11.2015 22:30 2,7 C 80 % 1022,1 hPa 0,0 l/m 0,0 km/h (0 Bft) SW 219 0 min 0,000 mm 0,0 UV-I 0 W/m -0,4 C 2,7 C 0,0 km/h (0 Bft)
03.11.2015 22:35 2,6 C 80 % 1022,1 hPa 0,0 l/m 0,0 km/h (0 Bft) SW 219 0 min 0,000 mm 0,0 UV-I 0 W/m -0,5 C 2,6 C 0,0 km/h (0 Bft)
03.11.2015 22:40 2,6 C 80 % 1022,0 hPa 0,0 l/m 0,0 km/h (0 Bft) SW 219 0 min 0,000 mm 0,0 UV-I 0 W/m -0,5 C 2,6 C 0,0 km/h (0 Bft)
03.11.2015 22:45 2,6 C 79 % 1022,0 hPa 0,0 l/m 0,0 km/h (0 Bft) SW 219 0 min 0,000 mm 0,0 UV-I 0 W/m -0,7 C 2,6 C 0,0 km/h (0 Bft)
03.11.2015 22:50 2,6 C 79 % 1022,0 hPa 0,0 l/m 0,0 km/h (0 Bft) SW 219 0 min 0,000 mm 0,0 UV-I 0 W/m -0,7 C 2,6 C 0,0 km/h (0 Bft)
03.11.2015 22:55 2,6 C 79 % 1022,1 hPa 0,0 l/m 0,0 km/h (0 Bft) SW 219 0 min 0,000 mm 0,0 UV-I 0 W/m -0,7 C 2,6 C 0,0 km/h (0 Bft)
03.11.2015 23:00 2,6 C 79 % 1022,0 hPa 0,0 l/m 0,0 km/h (0 Bft) SW 219 0 min 0,000 mm 0,0 UV-I 0 W/m -0,7 C 2,6 C 0,0 km/h (0 Bft)
03.11.2015 23:05 2,6 C 79 % 1022,0 hPa 0,0 l/m 0,0 km/h (0 Bft) SW 219 0 min 0,000 mm 0,0 UV-I 0 W/m -0,7 C 2,6 C 0,0 km/h (0 Bft)
03.11.2015 23:10 2,7 C 79 % 1022,5 hPa 0,0 l/m 1,4 km/h (1 Bft) SW 219 0 min 0,000 mm 0,0 UV-I 0 W/m -0,6 C 2,7 C 4,8 km/h (1 Bft)
03.11.2015 23:15 2,7 C 79 % 1022,5 hPa 0,0 l/m 0,0 km/h (0 Bft) SW 219 0 min 0,000 mm 0,0 UV-I 0 W/m -0,6 C 2,7 C 1,6 km/h (1 Bft)
03.11.2015 23:20 2,7 C 79 % 1022,6 hPa 0,0 l/m 0,0 km/h (0 Bft) SW 219 0 min 0,000 mm 0,0 UV-I 0 W/m -0,6 C 2,7 C 1,6 km/h (1 Bft)
03.11.2015 23:25 2,7 C 79 % 1022,5 hPa 0,0 l/m 0,0 km/h (0 Bft) SW 219 0 min 0,000 mm 0,0 UV-I 0 W/m -0,6 C 2,7 C 0,0 km/h (0 Bft)
03.11.2015 23:30 2,7 C 79 % 1022,5 hPa 0,0 l/m 0,0 km/h (0 Bft) SW 219 0 min 0,000 mm 0,0 UV-I 0 W/m -0,6 C 2,7 C 0,0 km/h (0 Bft)
03.11.2015 23:35 2,7 C 79 % 1022,3 hPa 0,0 l/m 0,0 km/h (0 Bft) SW 219 0 min 0,000 mm 0,0 UV-I 0 W/m -0,6 C 2,7 C 0,0 km/h (0 Bft)
03.11.2015 23:40 2,7 C 79 % 1022,3 hPa 0,0 l/m 0,0 km/h (0 Bft) SW 219 0 min 0,000 mm 0,0 UV-I 0 W/m -0,6 C 2,7 C 0,0 km/h (0 Bft)
03.11.2015 23:45 2,7 C 79 % 1022,3 hPa 0,0 l/m 0,0 km/h (0 Bft) SW 219 0 min 0,000 mm 0,0 UV-I 0 W/m -0,6 C 2,7 C 0,0 km/h (0 Bft)
03.11.2015 23:50 2,8 C 79 % 1022,1 hPa 0,0 l/m 0,0 km/h (0 Bft) SW 219 0 min 0,000 mm 0,0 UV-I 0 W/m -0,5 C 2,8 C 0,0 km/h (0 Bft)
03.11.2015 23:55 2,8 C 79 % 1022,0 hPa 0,0 l/m 0,0 km/h (0 Bft) SW 219 0 min 0,000 mm 0,0 UV-I 0 W/m -0,5 C 2,8 C 0,0 km/h (0 Bft)
_ Min-Zeit 07:40 13:35 15:30 - 00:00 - - - - - - 06:10 07:30 00:00
Minimum _ -0,9 C 60 % 1020,8 hPa - 0,0 km/h (0 Bft) - - - - - - -3,9 C -0,8 C 0,0 km/h (0 Bft)
_ Max-Zeit 14:10 11:15 00:00 00:00 04:10 - - 09:55 13:05 11:40 12:35 13:55 14:10 13:05
Maximum _ 14,1 C 81 % 1026,5 hPa 0,0 l/m 2,7 km/h
O-NO (1 Bft)
- - 5 min 0,203 mm 1,4 UV-I 424 W/m 6,9 C 14,0 C 9,7 km/h
O (2 Bft)
Durchschnitt _ 3,8 C 77 % 1023,1 hPa #0,0 l/m 0,1 km/h (0 Bft) O-NO - #5:50 h #0,889 mm 1,0 UV-I 207 W/m 0,1 C 3,8 C 0,8 km/h (0 Bft)